owner,sensor,date,latitude,longitude,sea_surface_height_above_sea_level,qcFlag 
COMPS,ioos:station:USF.COMPS:FHP:1,2013-07-01T00:00:00Z,28.1530,-82.8010,0.395,1111122 
COMPS,ioos:station:USF.COMPS:FHP:1,2013-07-01T00:06:00Z,28.1530,-82.8010,0.388,1111122 
COMPS,ioos:station:USF.COMPS:FHP:1,2013-07-01T00:12:00Z,28.1530,-82.8010,0.402,1111122 
COMPS,ioos:station:USF.COMPS:FHP:1,2013-07-01T00:18:00Z,28.1530,-82.8010,0.391,1111122 
COMPS,ioos:station:USF.COMPS:FHP:1,2013-07-01T00:24:00Z,28.1530,-82.8010,0.393,1111122 
COMPS,ioos:station:USF.COMPS:FHP:1,2013-07-01T00:30:00Z,28.1530,-82.8010,0.365,1111122 
COMPS,ioos:station:USF.COMPS:FHP:1,2013-07-01T00:36:00Z,28.1530,-82.8010,0.349,1111122 
COMPS,ioos:station:USF.COMPS:FHP:1,2013-07-01T00:42:00Z,28.1530,-82.8010,0.33,1111122 
COMPS,ioos:station:USF.COMPS:FHP:1,2013-07-01T00:48:00Z,28.1530,-82.8010,0.317,1111122 
COMPS,ioos:station:USF.COMPS:FHP:1,2013-07-01T00:54:00Z,28.1530,-82.8010,0.32,1111122 
COMPS,ioos:station:USF.COMPS:FHP:1,2013-07-01T01:00:00Z,28.1530,-82.8010,0.309,1111122 
COMPS,ioos:station:USF.COMPS:FHP:1,2013-07-01T01:06:00Z,28.1530,-82.8010,0.303,1111122 
COMPS,ioos:station:USF.COMPS:FHP:1,2013-07-01T01:12:00Z,28.1530,-82.8010,0.282,1111122 
COMPS,ioos:station:USF.COMPS:FHP:1,2013-07-01T01:18:00Z,28.1530,-82.8010,0.285,1111122 
COMPS,ioos:station:USF.COMPS:FHP:1,2013-07-01T01:24:00Z,28.1530,-82.8010,0.263,1111122 
COMPS,ioos:station:USF.COMPS:FHP:1,2013-07-01T01:30:00Z,28.1530,-82.8010,0.268,1111122 
COMPS,ioos:station:USF.COMPS:FHP:1,2013-07-01T01:36:00Z,28.1530,-82.8010,0.261,1111122 
COMPS,ioos:station:USF.COMPS:FHP:1,2013-07-01T01:42:00Z,28.1530,-82.8010,0.251,1111122 
COMPS,ioos:station:USF.COMPS:FHP:1,2013-07-01T01:48:00Z,28.1530,-82.8010,0.238,1111122 
COMPS,ioos:station:USF.COMPS:FHP:1,2013-07-01T01:54:00Z,28.1530,-82.8010,0.229,1111122 
COMPS,ioos:station:USF.COMPS:FHP:1,2013-07-01T02:00:00Z,28.1530,-82.8010,0.218,1111122 
COMPS,ioos:station:USF.COMPS:FHP:1,2013-07-01T02:06:00Z,28.1530,-82.8010,0.206,1111122 
COMPS,ioos:station:USF.COMPS:FHP:1,2013-07-01T02:12:00Z,28.1530,-82.8010,0.19,1111122 
COMPS,ioos:station:USF.COMPS:FHP:1,2013-07-01T02:18:00Z,28.1530,-82.8010,0.185,1111122 
COMPS,ioos:station:USF.COMPS:FHP:1,2013-07-01T02:24:00Z,28.1530,-82.8010,0.171,1111122 
COMPS,ioos:station:USF.COMPS:FHP:1,2013-07-01T02:30:00Z,28.1530,-82.8010,0.157,1111122 
COMPS,ioos:station:USF.COMPS:FHP:1,2013-07-01T02:36:00Z,28.1530,-82.8010,0.156,1111122 
COMPS,ioos:station:USF.COMPS:FHP:1,2013-07-01T02:48:00Z,28.1530,-82.8010,0.134,1111122 
COMPS,ioos:station:USF.COMPS:FHP:1,2013-07-01T02:54:00Z,28.1530,-82.8010,0.128,1111122 
COMPS,ioos:station:USF.COMPS:FHP:1,2013-07-01T03:06:00Z,28.1530,-82.8010,0.12,1111122 
COMPS,ioos:station:USF.COMPS:FHP:1,2013-07-01T03:18:00Z,28.1530,-82.8010,0.125,1111122 
COMPS,ioos:station:USF.COMPS:FHP:1,2013-07-01T03:24:00Z,28.1530,-82.8010,0.112,1111122 
COMPS,ioos:station:USF.COMPS:FHP:1,2013-07-01T03:30:00Z,28.1530,-82.8010,0.119,1111122 
COMPS,ioos:station:USF.COMPS:FHP:1,2013-07-01T03:36:00Z,28.1530,-82.8010,0.119,1111122 
COMPS,ioos:station:USF.COMPS:FHP:1,2013-07-01T03:42:00Z,28.1530,-82.8010,0.105,1111122 
COMPS,ioos:station:USF.COMPS:FHP:1,2013-07-01T03:48:00Z,28.1530,-82.8010,0.117,1111122 
COMPS,ioos:station:USF.COMPS:FHP:1,2013-07-01T03:54:00Z,28.1530,-82.8010,0.112,1111122 
COMPS,ioos:station:USF.COMPS:FHP:1,2013-07-01T04:00:00Z,28.1530,-82.8010,0.108,1111122 
COMPS,ioos:station:USF.COMPS:FHP:1,2013-07-01T04:06:00Z,28.1530,-82.8010,0.106,1111122 
COMPS,ioos:station:USF.COMPS:FHP:1,2013-07-01T04:12:00Z,28.1530,-82.8010,0.111,1111122 
COMPS,ioos:station:USF.COMPS:FHP:1,2013-07-01T04:18:00Z,28.1530,-82.8010,0.107,1111122 
COMPS,ioos:station:USF.COMPS:FHP:1,2013-07-01T04:24:00Z,28.1530,-82.8010,0.119,1111122 
COMPS,ioos:station:USF.COMPS:FHP:1,2013-07-01T04:30:00Z,28.1530,-82.8010,0.111,1111122 
COMPS,ioos:station:USF.COMPS:FHP:1,2013-07-01T04:36:00Z,28.1530,-82.8010,0.123,1111122 
COMPS,ioos:station:USF.COMPS:FHP:1,2013-07-01T04:42:00Z,28.1530,-82.8010,0.126,1111122 
COMPS,ioos:station:USF.COMPS:FHP:1,2013-07-01T04:48:00Z,28.1530,-82.8010,0.139,1111122 
COMPS,ioos:station:USF.COMPS:FHP:1,2013-07-01T04:54:00Z,28.1530,-82.8010,0.145,1111122 
COMPS,ioos:station:USF.COMPS:FHP:1,2013-07-01T05:00:00Z,28.1530,-82.8010,0.138,1111122 
COMPS,ioos:station:USF.COMPS:FHP:1,2013-07-01T05:06:00Z,28.1530,-82.8010,0.131,1111122 
COMPS,ioos:station:USF.COMPS:FHP:1,2013-07-01T05:12:00Z,28.1530,-82.8010,0.146,1111122 
COMPS,ioos:station:USF.COMPS:FHP:1,2013-07-01T05:18:00Z,28.1530,-82.8010,0.14,1111122 
COMPS,ioos:station:USF.COMPS:FHP:1,2013-07-01T05:24:00Z,28.1530,-82.8010,0.152,1111122 
COMPS,ioos:station:USF.COMPS:FHP:1,2013-07-01T05:30:00Z,28.1530,-82.8010,0.16,1111122 
COMPS,ioos:station:USF.COMPS:FHP:1,2013-07-01T05:36:00Z,28.1530,-82.8010,0.164,1111122 
COMPS,ioos:station:USF.COMPS:FHP:1,2013-07-01T05:48:00Z,28.1530,-82.8010,0.166,1111122 
COMPS,ioos:station:USF.COMPS:FHP:1,2013-07-01T06:00:00Z,28.1530,-82.8010,0.194,1111122 
COMPS,ioos:station:USF.COMPS:FHP:1,2013-07-01T06:18:00Z,28.1530,-82.8010,0.201,1111122 
COMPS,ioos:station:USF.COMPS:FHP:1,2013-07-01T06:24:00Z,28.1530,-82.8010,0.213,1111122 
COMPS,ioos:station:USF.COMPS:FHP:1,2013-07-01T06:30:00Z,28.1530,-82.8010,0.235,1111122 
COMPS,ioos:station:USF.COMPS:FHP:1,2013-07-01T06:36:00Z,28.1530,-82.8010,0.252,1111122 
COMPS,ioos:station:USF.COMPS:FHP:1,2013-07-01T06:42:00Z,28.1530,-82.8010,0.255,1111122 
COMPS,ioos:station:USF.COMPS:FHP:1,2013-07-01T06:48:00Z,28.1530,-82.8010,0.262,1111122 
COMPS,ioos:station:USF.COMPS:FHP:1,2013-07-01T06:54:00Z,28.1530,-82.8010,0.259,1111122 
COMPS,ioos:station:USF.COMPS:FHP:1,2013-07-01T07:00:00Z,28.1530,-82.8010,0.276,1111122 
COMPS,ioos:station:USF.COMPS:FHP:1,2013-07-01T07:06:00Z,28.1530,-82.8010,0.29,1111122 
COMPS,ioos:station:USF.COMPS:FHP:1,2013-07-01T07:12:00Z,28.1530,-82.8010,0.302,1111122 
COMPS,ioos:station:USF.COMPS:FHP:1,2013-07-01T07:18:00Z,28.1530,-82.8010,0.311,1111122 
COMPS,ioos:station:USF.COMPS:FHP:1,2013-07-01T07:24:00Z,28.1530,-82.8010,0.317,1111122 
COMPS,ioos:station:USF.COMPS:FHP:1,2013-07-01T07:30:00Z,28.1530,-82.8010,0.319,1111122 
COMPS,ioos:station:USF.COMPS:FHP:1,2013-07-01T07:36:00Z,28.1530,-82.8010,0.329,1111122 
COMPS,ioos:station:USF.COMPS:FHP:1,2013-07-01T07:42:00Z,28.1530,-82.8010,0.323,1111122 
COMPS,ioos:station:USF.COMPS:FHP:1,2013-07-01T07:48:00Z,28.1530,-82.8010,0.346,1111122 
COMPS,ioos:station:USF.COMPS:FHP:1,2013-07-01T07:54:00Z,28.1530,-82.8010,0.346,1111122 
COMPS,ioos:station:USF.COMPS:FHP:1,2013-07-01T08:00:00Z,28.1530,-82.8010,0.364,1111122 
COMPS,ioos:station:USF.COMPS:FHP:1,2013-07-01T08:06:00Z,28.1530,-82.8010,0.373,1111122 
COMPS,ioos:station:USF.COMPS:FHP:1,2013-07-01T08:12:00Z,28.1530,-82.8010,0.385,1111122 
COMPS,ioos:station:USF.COMPS:FHP:1,2013-07-01T08:18:00Z,28.1530,-82.8010,0.4,1111122 
COMPS,ioos:station:USF.COMPS:FHP:1,2013-07-01T08:24:00Z,28.1530,-82.8010,0.411,1111122 
COMPS,ioos:station:USF.COMPS:FHP:1,2013-07-01T08:30:00Z,28.1530,-82.8010,0.414,1111122 
COMPS,ioos:station:USF.COMPS:FHP:1,2013-07-01T08:36:00Z,28.1530,-82.8010,0.415,1111122 
COMPS,ioos:station:USF.COMPS:FHP:1,2013-07-01T08:42:00Z,28.1530,-82.8010,0.423,1111122 
COMPS,ioos:station:USF.COMPS:FHP:1,2013-07-01T08:48:00Z,28.1530,-82.8010,0.436,1111122 
COMPS,ioos:station:USF.COMPS:FHP:1,2013-07-01T08:54:00Z,28.1530,-82.8010,0.45,1111122 
COMPS,ioos:station:USF.COMPS:FHP:1,2013-07-01T09:00:00Z,28.1530,-82.8010,0.472,1111122 
COMPS,ioos:station:USF.COMPS:FHP:1,2013-07-01T09:06:00Z,28.1530,-82.8010,0.483,1111122 
COMPS,ioos:station:USF.COMPS:FHP:1,2013-07-01T09:12:00Z,28.1530,-82.8010,0.492,1111122 
COMPS,ioos:station:USF.COMPS:FHP:1,2013-07-01T09:18:00Z,28.1530,-82.8010,0.498,1111122 
COMPS,ioos:station:USF.COMPS:FHP:1,2013-07-01T09:24:00Z,28.1530,-82.8010,0.512,1111122 
COMPS,ioos:station:USF.COMPS:FHP:1,2013-07-01T09:30:00Z,28.1530,-82.8010,0.521,1111122 
COMPS,ioos:station:USF.COMPS:FHP:1,2013-07-01T09:36:00Z,28.1530,-82.8010,0.533,1111122 
COMPS,ioos:station:USF.COMPS:FHP:1,2013-07-01T09:42:00Z,28.1530,-82.8010,0.533,1111122 
COMPS,ioos:station:USF.COMPS:FHP:1,2013-07-01T09:48:00Z,28.1530,-82.8010,0.544,1111122 
COMPS,ioos:station:USF.COMPS:FHP:1,2013-07-01T09:54:00Z,28.1530,-82.8010,0.549,1111122 
COMPS,ioos:station:USF.COMPS:FHP:1,2013-07-01T10:00:00Z,28.1530,-82.8010,0.574,1111122 
COMPS,ioos:station:USF.COMPS:FHP:1,2013-07-01T10:06:00Z,28.1530,-82.8010,0.588,1111122 
COMPS,ioos:station:USF.COMPS:FHP:1,2013-07-01T10:12:00Z,28.1530,-82.8010,0.607,1111122 
COMPS,ioos:station:USF.COMPS:FHP:1,2013-07-01T10:18:00Z,28.1530,-82.8010,0.607,1111122 
COMPS,ioos:station:USF.COMPS:FHP:1,2013-07-01T10:24:00Z,28.1530,-82.8010,0.616,1111122 
COMPS,ioos:station:USF.COMPS:FHP:1,2013-07-01T10:30:00Z,28.1530,-82.8010,0.608,1111122 
COMPS,ioos:station:USF.COMPS:FHP:1,2013-07-01T10:36:00Z,28.1530,-82.8010,0.618,1111122 
COMPS,ioos:station:USF.COMPS:FHP:1,2013-07-01T10:42:00Z,28.1530,-82.8010,0.623,1111122 
COMPS,ioos:station:USF.COMPS:FHP:1,2013-07-01T10:48:00Z,28.1530,-82.8010,0.638,1111122 
COMPS,ioos:station:USF.COMPS:FHP:1,2013-07-01T10:54:00Z,28.1530,-82.8010,0.641,1111122 
COMPS,ioos:station:USF.COMPS:FHP:1,2013-07-01T11:00:00Z,28.1530,-82.8010,0.657,1111122 
COMPS,ioos:station:USF.COMPS:FHP:1,2013-07-01T11:06:00Z,28.1530,-82.8010,0.664,1111122 
COMPS,ioos:station:USF.COMPS:FHP:1,2013-07-01T11:12:00Z,28.1530,-82.8010,0.679,1111122 
COMPS,ioos:station:USF.COMPS:FHP:1,2013-07-01T11:18:00Z,28.1530,-82.8010,0.684,1111122 
COMPS,ioos:station:USF.COMPS:FHP:1,2013-07-01T11:24:00Z,28.1530,-82.8010,0.692,1111122 
COMPS,ioos:station:USF.COMPS:FHP:1,2013-07-01T11:30:00Z,28.1530,-82.8010,0.697,1111122 
COMPS,ioos:station:USF.COMPS:FHP:1,2013-07-01T11:36:00Z,28.1530,-82.8010,0.701,1111122 
COMPS,ioos:station:USF.COMPS:FHP:1,2013-07-01T11:42:00Z,28.1530,-82.8010,0.697,1111122 
COMPS,ioos:station:USF.COMPS:FHP:1,2013-07-01T11:48:00Z,28.1530,-82.8010,0.706,1111122 
COMPS,ioos:station:USF.COMPS:FHP:1,2013-07-01T11:54:00Z,28.1530,-82.8010,0.691,1111122 
COMPS,ioos:station:USF.COMPS:FHP:1,2013-07-01T12:00:00Z,28.1530,-82.8010,0.69,1111122 
COMPS,ioos:station:USF.COMPS:FHP:1,2013-07-01T12:06:00Z,28.1530,-82.8010,0.686,1111122 
COMPS,ioos:station:USF.COMPS:FHP:1,2013-07-01T12:12:00Z,28.1530,-82.8010,0.682,1111122 
COMPS,ioos:station:USF.COMPS:FHP:1,2013-07-01T12:18:00Z,28.1530,-82.8010,0.687,1111122 
COMPS,ioos:station:USF.COMPS:FHP:1,2013-07-01T12:24:00Z,28.1530,-82.8010,0.695,1111122 
COMPS,ioos:station:USF.COMPS:FHP:1,2013-07-01T12:30:00Z,28.1530,-82.8010,0.701,1111122 
COMPS,ioos:station:USF.COMPS:FHP:1,2013-07-01T12:36:00Z,28.1530,-82.8010,0.715,1111122 
COMPS,ioos:station:USF.COMPS:FHP:1,2013-07-01T12:42:00Z,28.1530,-82.8010,0.71,1111122 
COMPS,ioos:station:USF.COMPS:FHP:1,2013-07-01T12:48:00Z,28.1530,-82.8010,0.708,1111122 
COMPS,ioos:station:USF.COMPS:FHP:1,2013-07-01T12:54:00Z,28.1530,-82.8010,0.707,1111122 
COMPS,ioos:station:USF.COMPS:FHP:1,2013-07-01T13:00:00Z,28.1530,-82.8010,0.684,1111122 
COMPS,ioos:station:USF.COMPS:FHP:1,2013-07-01T13:06:00Z,28.1530,-82.8010,0.654,1111122 
COMPS,ioos:station:USF.COMPS:FHP:1,2013-07-01T13:12:00Z,28.1530,-82.8010,0.633,1111122 
COMPS,ioos:station:USF.COMPS:FHP:1,2013-07-01T13:18:00Z,28.1530,-82.8010,0.611,1111122 
COMPS,ioos:station:USF.COMPS:FHP:1,2013-07-01T13:24:00Z,28.1530,-82.8010,0.589,1111122 
COMPS,ioos:station:USF.COMPS:FHP:1,2013-07-01T13:30:00Z,28.1530,-82.8010,0.564,1111122 
COMPS,ioos:station:USF.COMPS:FHP:1,2013-07-01T13:36:00Z,28.1530,-82.8010,0.54,1111122 
COMPS,ioos:station:USF.COMPS:FHP:1,2013-07-01T13:42:00Z,28.1530,-82.8010,0.523,1111122 
COMPS,ioos:station:USF.COMPS:FHP:1,2013-07-01T13:48:00Z,28.1530,-82.8010,0.513,1111122 
COMPS,ioos:station:USF.COMPS:FHP:1,2013-07-01T13:54:00Z,28.1530,-82.8010,0.497,1111122 
COMPS,ioos:station:USF.COMPS:FHP:1,2013-07-01T14:00:00Z,28.1530,-82.8010,0.488,1111122 
COMPS,ioos:station:USF.COMPS:FHP:1,2013-07-01T14:06:00Z,28.1530,-82.8010,0.482,1111122 
COMPS,ioos:station:USF.COMPS:FHP:1,2013-07-01T14:12:00Z,28.1530,-82.8010,0.471,1111122 
COMPS,ioos:station:USF.COMPS:FHP:1,2013-07-01T14:18:00Z,28.1530,-82.8010,0.466,1111122 
COMPS,ioos:station:USF.COMPS:FHP:1,2013-07-01T14:24:00Z,28.1530,-82.8010,0.455,1111122 
COMPS,ioos:station:USF.COMPS:FHP:1,2013-07-01T14:30:00Z,28.1530,-82.8010,0.453,1111122 
COMPS,ioos:station:USF.COMPS:FHP:1,2013-07-01T14:36:00Z,28.1530,-82.8010,0.441,1111122 
COMPS,ioos:station:USF.COMPS:FHP:1,2013-07-01T14:42:00Z,28.1530,-82.8010,0.432,1111122 
COMPS,ioos:station:USF.COMPS:FHP:1,2013-07-01T14:48:00Z,28.1530,-82.8010,0.419,1111122 
COMPS,ioos:station:USF.COMPS:FHP:1,2013-07-01T14:54:00Z,28.1530,-82.8010,0.433,1111122 
COMPS,ioos:station:USF.COMPS:FHP:1,2013-07-01T15:00:00Z,28.1530,-82.8010,0.415,1111122 
COMPS,ioos:station:USF.COMPS:FHP:1,2013-07-01T15:06:00Z,28.1530,-82.8010,0.416,1111122 
COMPS,ioos:station:USF.COMPS:FHP:1,2013-07-01T15:12:00Z,28.1530,-82.8010,0.402,1111122 
COMPS,ioos:station:USF.COMPS:FHP:1,2013-07-01T15:18:00Z,28.1530,-82.8010,0.379,1111122 
COMPS,ioos:station:USF.COMPS:FHP:1,2013-07-01T15:24:00Z,28.1530,-82.8010,0.358,1111122 
COMPS,ioos:station:USF.COMPS:FHP:1,2013-07-01T15:30:00Z,28.1530,-82.8010,0.344,1111122 
COMPS,ioos:station:USF.COMPS:FHP:1,2013-07-01T15:36:00Z,28.1530,-82.8010,0.335,1111122 
COMPS,ioos:station:USF.COMPS:FHP:1,2013-07-01T15:42:00Z,28.1530,-82.8010,0.319,1111122 
COMPS,ioos:station:USF.COMPS:FHP:1,2013-07-01T15:48:00Z,28.1530,-82.8010,0.311,1111122 
COMPS,ioos:station:USF.COMPS:FHP:1,2013-07-01T15:54:00Z,28.1530,-82.8010,0.293,1111122 
COMPS,ioos:station:USF.COMPS:FHP:1,2013-07-01T16:00:00Z,28.1530,-82.8010,0.272,1111122 
COMPS,ioos:station:USF.COMPS:FHP:1,2013-07-01T16:06:00Z,28.1530,-82.8010,0.269,1111122 
COMPS,ioos:station:USF.COMPS:FHP:1,2013-07-01T16:12:00Z,28.1530,-82.8010,0.27,1111122 
COMPS,ioos:station:USF.COMPS:FHP:1,2013-07-01T16:18:00Z,28.1530,-82.8010,0.266,1111122 
COMPS,ioos:station:USF.COMPS:FHP:1,2013-07-01T16:24:00Z,28.1530,-82.8010,0.262,1111122 
COMPS,ioos:station:USF.COMPS:FHP:1,2013-07-01T16:30:00Z,28.1530,-82.8010,0.254,1111122 
COMPS,ioos:station:USF.COMPS:FHP:1,2013-07-01T16:36:00Z,28.1530,-82.8010,0.243,1111122 
COMPS,ioos:station:USF.COMPS:FHP:1,2013-07-01T16:42:00Z,28.1530,-82.8010,0.241,1111122 
COMPS,ioos:station:USF.COMPS:FHP:1,2013-07-01T16:48:00Z,28.1530,-82.8010,0.237,1111122 
COMPS,ioos:station:USF.COMPS:FHP:1,2013-07-01T16:54:00Z,28.1530,-82.8010,0.231,1111122 
COMPS,ioos:station:USF.COMPS:FHP:1,2013-07-01T17:00:00Z,28.1530,-82.8010,0.216,1111122 
COMPS,ioos:station:USF.COMPS:FHP:1,2013-07-01T17:06:00Z,28.1530,-82.8010,0.192,1111122 
COMPS,ioos:station:USF.COMPS:FHP:1,2013-07-01T17:12:00Z,28.1530,-82.8010,0.164,1111122 
COMPS,ioos:station:USF.COMPS:FHP:1,2013-07-01T17:18:00Z,28.1530,-82.8010,0.145,1111122 
COMPS,ioos:station:USF.COMPS:FHP:1,2013-07-01T17:24:00Z,28.1530,-82.8010,0.127,1111122 
COMPS,ioos:station:USF.COMPS:FHP:1,2013-07-01T17:30:00Z,28.1530,-82.8010,0.113,1111122 
COMPS,ioos:station:USF.COMPS:FHP:1,2013-07-01T17:36:00Z,28.1530,-82.8010,0.105,1111122 
COMPS,ioos:station:USF.COMPS:FHP:1,2013-07-01T17:42:00Z,28.1530,-82.8010,0.082,1111122 
COMPS,ioos:station:USF.COMPS:FHP:1,2013-07-01T17:48:00Z,28.1530,-82.8010,0.061,1111122 
COMPS,ioos:station:USF.COMPS:FHP:1,2013-07-01T17:54:00Z,28.1530,-82.8010,0.039,1111122 
COMPS,ioos:station:USF.COMPS:FHP:1,2013-07-01T18:00:00Z,28.1530,-82.8010,0.021,1111122 
COMPS,ioos:station:USF.COMPS:FHP:1,2013-07-01T18:06:00Z,28.1530,-82.8010,0.004,1111122 
COMPS,ioos:station:USF.COMPS:FHP:1,2013-07-01T18:12:00Z,28.1530,-82.8010,-0.006,1111122 
COMPS,ioos:station:USF.COMPS:FHP:1,2013-07-01T18:18:00Z,28.1530,-82.8010,-0.006,1111122 
COMPS,ioos:station:USF.COMPS:FHP:1,2013-07-01T18:24:00Z,28.1530,-82.8010,-0.006,1111122 
COMPS,ioos:station:USF.COMPS:FHP:1,2013-07-01T18:30:00Z,28.1530,-82.8010,0.0,1114422 
COMPS,ioos:station:USF.COMPS:FHP:1,2013-07-01T18:36:00Z,28.1530,-82.8010,0.01,1111122 
COMPS,ioos:station:USF.COMPS:FHP:1,2013-07-01T18:42:00Z,28.1530,-82.8010,0.028,1111122 
COMPS,ioos:station:USF.COMPS:FHP:1,2013-07-01T18:48:00Z,28.1530,-82.8010,0.037,1111122 
COMPS,ioos:station:USF.COMPS:FHP:1,2013-07-01T18:54:00Z,28.1530,-82.8010,0.04,1111122 
COMPS,ioos:station:USF.COMPS:FHP:1,2013-07-01T19:00:00Z,28.1530,-82.8010,0.054,1111122 
COMPS,ioos:station:USF.COMPS:FHP:1,2013-07-01T19:06:00Z,28.1530,-82.8010,0.058,1111122 
COMPS,ioos:station:USF.COMPS:FHP:1,2013-07-01T19:12:00Z,28.1530,-82.8010,0.062,1111122 
COMPS,ioos:station:USF.COMPS:FHP:1,2013-07-01T19:18:00Z,28.1530,-82.8010,0.077,1111122 
COMPS,ioos:station:USF.COMPS:FHP:1,2013-07-01T19:24:00Z,28.1530,-82.8010,0.084,1111122 
COMPS,ioos:station:USF.COMPS:FHP:1,2013-07-01T19:30:00Z,28.1530,-82.8010,0.09,1111122 
COMPS,ioos:station:USF.COMPS:FHP:1,2013-07-01T19:36:00Z,28.1530,-82.8010,0.1,1111122 
COMPS,ioos:station:USF.COMPS:FHP:1,2013-07-01T19:42:00Z,28.1530,-82.8010,0.1,1111122 
COMPS,ioos:station:USF.COMPS:FHP:1,2013-07-01T19:48:00Z,28.1530,-82.8010,0.107,1111122 
COMPS,ioos:station:USF.COMPS:FHP:1,2013-07-01T19:54:00Z,28.1530,-82.8010,0.112,1111122 
COMPS,ioos:station:USF.COMPS:FHP:1,2013-07-01T20:00:00Z,28.1530,-82.8010,0.125,1111122 
COMPS,ioos:station:USF.COMPS:FHP:1,2013-07-01T20:06:00Z,28.1530,-82.8010,0.132,1111122 
COMPS,ioos:station:USF.COMPS:FHP:1,2013-07-01T20:12:00Z,28.1530,-82.8010,0.146,1111122 
COMPS,ioos:station:USF.COMPS:FHP:1,2013-07-01T20:18:00Z,28.1530,-82.8010,0.159,1111122 
COMPS,ioos:station:USF.COMPS:FHP:1,2013-07-01T20:24:00Z,28.1530,-82.8010,0.171,1111122 
COMPS,ioos:station:USF.COMPS:FHP:1,2013-07-01T20:30:00Z,28.1530,-82.8010,0.187,1111122 
COMPS,ioos:station:USF.COMPS:FHP:1,2013-07-01T20:36:00Z,28.1530,-82.8010,0.204,1111122 
COMPS,ioos:station:USF.COMPS:FHP:1,2013-07-01T20:42:00Z,28.1530,-82.8010,0.231,1111122 
COMPS,ioos:station:USF.COMPS:FHP:1,2013-07-01T20:48:00Z,28.1530,-82.8010,0.252,1111122 
COMPS,ioos:station:USF.COMPS:FHP:1,2013-07-01T20:54:00Z,28.1530,-82.8010,0.275,1111122 
COMPS,ioos:station:USF.COMPS:FHP:1,2013-07-01T21:00:00Z,28.1530,-82.8010,0.293,1111122 
COMPS,ioos:station:USF.COMPS:FHP:1,2013-07-01T21:06:00Z,28.1530,-82.8010,0.31,1111122 
COMPS,ioos:station:USF.COMPS:FHP:1,2013-07-01T21:12:00Z,28.1530,-82.8010,0.302,1111122 
COMPS,ioos:station:USF.COMPS:FHP:1,2013-07-01T21:18:00Z,28.1530,-82.8010,0.301,1111122 
COMPS,ioos:station:USF.COMPS:FHP:1,2013-07-01T21:24:00Z,28.1530,-82.8010,0.298,1111122 
COMPS,ioos:station:USF.COMPS:FHP:1,2013-07-01T21:30:00Z,28.1530,-82.8010,0.316,1111122 
COMPS,ioos:station:USF.COMPS:FHP:1,2013-07-01T21:36:00Z,28.1530,-82.8010,0.33,1111122 
COMPS,ioos:station:USF.COMPS:FHP:1,2013-07-01T21:42:00Z,28.1530,-82.8010,0.333,1111122 
COMPS,ioos:station:USF.COMPS:FHP:1,2013-07-01T21:48:00Z,28.1530,-82.8010,0.324,1111122 
COMPS,ioos:station:USF.COMPS:FHP:1,2013-07-01T21:54:00Z,28.1530,-82.8010,0.319,1111122 
COMPS,ioos:station:USF.COMPS:FHP:1,2013-07-01T22:00:00Z,28.1530,-82.8010,0.314,1111122 
COMPS,ioos:station:USF.COMPS:FHP:1,2013-07-01T22:06:00Z,28.1530,-82.8010,0.317,1111122 
COMPS,ioos:station:USF.COMPS:FHP:1,2013-07-01T22:12:00Z,28.1530,-82.8010,0.335,1111122 
COMPS,ioos:station:USF.COMPS:FHP:1,2013-07-01T22:18:00Z,28.1530,-82.8010,0.357,1111122 
COMPS,ioos:station:USF.COMPS:FHP:1,2013-07-01T22:24:00Z,28.1530,-82.8010,0.368,1111122 
COMPS,ioos:station:USF.COMPS:FHP:1,2013-07-01T22:30:00Z,28.1530,-82.8010,0.369,1111122 
COMPS,ioos:station:USF.COMPS:FHP:1,2013-07-01T22:36:00Z,28.1530,-82.8010,0.357,1111122 
COMPS,ioos:station:USF.COMPS:FHP:1,2013-07-01T22:42:00Z,28.1530,-82.8010,0.35,1111122 
COMPS,ioos:station:USF.COMPS:FHP:1,2013-07-01T22:48:00Z,28.1530,-82.8010,0.333,1111122 
COMPS,ioos:station:USF.COMPS:FHP:1,2013-07-01T22:54:00Z,28.1530,-82.8010,0.341,1111122 
COMPS,ioos:station:USF.COMPS:FHP:1,2013-07-01T23:00:00Z,28.1530,-82.8010,0.336,1111122 
COMPS,ioos:station:USF.COMPS:FHP:1,2013-07-01T23:06:00Z,28.1530,-82.8010,0.339,1111122 
COMPS,ioos:station:USF.COMPS:FHP:1,2013-07-01T23:12:00Z,28.1530,-82.8010,0.338,1111122 
COMPS,ioos:station:USF.COMPS:FHP:1,2013-07-01T23:18:00Z,28.1530,-82.8010,0.328,1111122 
COMPS,ioos:station:USF.COMPS:FHP:1,2013-07-01T23:24:00Z,28.1530,-82.8010,0.336,1111122 
COMPS,ioos:station:USF.COMPS:FHP:1,2013-07-01T23:30:00Z,28.1530,-82.8010,0.334,1111122 
COMPS,ioos:station:USF.COMPS:FHP:1,2013-07-01T23:36:00Z,28.1530,-82.8010,0.343,1111122 
COMPS,ioos:station:USF.COMPS:FHP:1,2013-07-01T23:42:00Z,28.1530,-82.8010,0.329,1111122 
COMPS,ioos:station:USF.COMPS:FHP:1,2013-07-01T23:48:00Z,28.1530,-82.8010,0.322,1111122 
COMPS,ioos:station:USF.COMPS:FHP:1,2013-07-01T23:54:00Z,28.1530,-82.8010,0.308,1111122 
COMPS,ioos:station:USF.COMPS:FHP:1,2013-07-02T00:00:00Z,28.1530,-82.8010,0.32,1111122 
COMPS,ioos:station:USF.COMPS:FHP:1,2013-07-02T00:06:00Z,28.1530,-82.8010,0.328,1111122 
COMPS,ioos:station:USF.COMPS:FHP:1,2013-07-02T00:12:00Z,28.1530,-82.8010,0.327,1111122 
COMPS,ioos:station:USF.COMPS:FHP:1,2013-07-02T00:24:00Z,28.1530,-82.8010,0.317,1111122 
COMPS,ioos:station:USF.COMPS:FHP:1,2013-07-02T00:30:00Z,28.1530,-82.8010,0.305,1111122 
COMPS,ioos:station:USF.COMPS:FHP:1,2013-07-02T00:36:00Z,28.1530,-82.8010,0.318,1111122 
COMPS,ioos:station:USF.COMPS:FHP:1,2013-07-02T00:42:00Z,28.1530,-82.8010,0.34,1111122 
COMPS,ioos:station:USF.COMPS:FHP:1,2013-07-02T00:48:00Z,28.1530,-82.8010,0.334,1111122 
COMPS,ioos:station:USF.COMPS:FHP:1,2013-07-02T00:54:00Z,28.1530,-82.8010,0.319,1111122 
COMPS,ioos:station:USF.COMPS:FHP:1,2013-07-02T01:00:00Z,28.1530,-82.8010,0.306,1111122 
COMPS,ioos:station:USF.COMPS:FHP:1,2013-07-02T01:06:00Z,28.1530,-82.8010,0.302,1111122 
COMPS,ioos:station:USF.COMPS:FHP:1,2013-07-02T01:12:00Z,28.1530,-82.8010,0.289,1111122 
COMPS,ioos:station:USF.COMPS:FHP:1,2013-07-02T01:18:00Z,28.1530,-82.8010,0.295,1111122 
COMPS,ioos:station:USF.COMPS:FHP:1,2013-07-02T01:30:00Z,28.1530,-82.8010,0.294,1111122 
COMPS,ioos:station:USF.COMPS:FHP:1,2013-07-02T01:42:00Z,28.1530,-82.8010,0.298,1111122 
COMPS,ioos:station:USF.COMPS:FHP:1,2013-07-02T01:48:00Z,28.1530,-82.8010,0.305,1111122 
COMPS,ioos:station:USF.COMPS:FHP:1,2013-07-02T01:54:00Z,28.1530,-82.8010,0.309,1111122 
COMPS,ioos:station:USF.COMPS:FHP:1,2013-07-02T02:00:00Z,28.1530,-82.8010,0.33,1111122 
COMPS,ioos:station:USF.COMPS:FHP:1,2013-07-02T02:06:00Z,28.1530,-82.8010,0.325,1111122 
COMPS,ioos:station:USF.COMPS:FHP:1,2013-07-02T02:12:00Z,28.1530,-82.8010,0.314,1111122 
COMPS,ioos:station:USF.COMPS:FHP:1,2013-07-02T02:18:00Z,28.1530,-82.8010,0.302,1111122 
COMPS,ioos:station:USF.COMPS:FHP:1,2013-07-02T02:24:00Z,28.1530,-82.8010,0.298,1111122 
COMPS,ioos:station:USF.COMPS:FHP:1,2013-07-02T02:30:00Z,28.1530,-82.8010,0.285,1111122 
COMPS,ioos:station:USF.COMPS:FHP:1,2013-07-02T02:36:00Z,28.1530,-82.8010,0.29,1111122 
COMPS,ioos:station:USF.COMPS:FHP:1,2013-07-02T02:42:00Z,28.1530,-82.8010,0.288,1111122 
COMPS,ioos:station:USF.COMPS:FHP:1,2013-07-02T02:48:00Z,28.1530,-82.8010,0.289,1111122 
COMPS,ioos:station:USF.COMPS:FHP:1,2013-07-02T02:54:00Z,28.1530,-82.8010,0.278,1111122 
COMPS,ioos:station:USF.COMPS:FHP:1,2013-07-02T03:00:00Z,28.1530,-82.8010,0.275,1111122 
COMPS,ioos:station:USF.COMPS:FHP:1,2013-07-02T03:06:00Z,28.1530,-82.8010,0.278,1111122 
COMPS,ioos:station:USF.COMPS:FHP:1,2013-07-02T03:12:00Z,28.1530,-82.8010,0.262,1111122 
COMPS,ioos:station:USF.COMPS:FHP:1,2013-07-02T03:24:00Z,28.1530,-82.8010,0.248,1111122 
COMPS,ioos:station:USF.COMPS:FHP:1,2013-07-02T03:30:00Z,28.1530,-82.8010,0.243,1111122 
COMPS,ioos:station:USF.COMPS:FHP:1,2013-07-02T03:36:00Z,28.1530,-82.8010,0.245,1111122 
COMPS,ioos:station:USF.COMPS:FHP:1,2013-07-02T03:42:00Z,28.1530,-82.8010,0.238,1111122 
COMPS,ioos:station:USF.COMPS:FHP:1,2013-07-02T03:48:00Z,28.1530,-82.8010,0.236,1111122 
COMPS,ioos:station:USF.COMPS:FHP:1,2013-07-02T03:54:00Z,28.1530,-82.8010,0.225,1111122 
COMPS,ioos:station:USF.COMPS:FHP:1,2013-07-02T04:00:00Z,28.1530,-82.8010,0.215,1111122 
COMPS,ioos:station:USF.COMPS:FHP:1,2013-07-02T04:06:00Z,28.1530,-82.8010,0.214,1111122 
COMPS,ioos:station:USF.COMPS:FHP:1,2013-07-02T04:12:00Z,28.1530,-82.8010,0.204,1111122 